ARIRANG-3 (KOMPSAT-3)

Last updated on Fri Oct 04 2024 00:02:25 GMT+0000 (Coordinated Universal Time)

1 38338U 12025B 24277.54510162 .00003839 00000+0 75423-3 0 9997 2 38338 98.2720 224.0052 0008557 260.4091 99.6144 14.63218622660502
UTC large
Height (km)
Speed (km/s)
/
Latitude / Longitude
Inclination (degrees)
Orbital Period (minutes)
Azimuth
Elevation
Range (km)
Doppler Factor

Next 0 passes for location: London (51.5072 / 0.1276)

Sorry there are no passes over London.